Location: Newark
(35.0033°N, 81.0878°W)
Time: 11:18:06
(UTC+00:00)

Envisat - Pass Details

Date: 24 October 2020
Orbit: 764 x 766 km, 98.1° (Epoch: 03 December)

Event Time Altitude Azimuth Distance (km) Brightness Sun altitude
Rises 10:34:18 0° 25° (NNE) 3,236 6.5 -13.8°
Reaches altitude 10° 10:36:54 10° 37° (NE) 2,306 5.9 -13.3°
Maximum altitude 10:41:17 29° 96° (E) 1,378 5.2 -12.4°
Drops below altitude 10° 10:45:38 10° 156° (SSE) 2,292 5.9 -11.5°
Sets 10:48:12 0° 167° (SSE) 3,213 6.5 -11.0°
